Weather History for Pompano Beach, FL

Change the Weather History Date:

Tuesday, March 12, 2013

  Actual Average Record
Temperature  
Mean Temperature 76 °F -  
Max Temperature 79 °F 80 °F 89 °F (1967)
Min Temperature 70 °F 62 °F 44 °F (1969)
Cooling Degree Days 10    
Growing Degree Days 26 (Base 50)    
Moisture  
Dew Point 66 °F    
Average Humidity 74    
Maximum Humidity 87    
Minimum Humidity 64    
Precipitation  
Precipitation 0.01 in - - ()
Sea Level Pressure  
Sea Level Pressure 29.98 in    
Wind  
Wind Speed 14 mph (South)    
Max Wind Speed 20 mph    
Max Gust Speed 26 mph    
Visibility 10 miles    
Events      
Averages and records for this station are not official NWS values.
T = Trace of Precipitation, MM = Missing Value Source: NWS Daily Summary

Daily Weather History Graph

Daily Weather History Graph

Search for Another Location

Airport:

Trip Planner

Search our weather history database for the weather conditions in past years. The results will help you decide how hot, cold, wet, or windy it might be!

Date:

Astronomy

Mar. 12, 2013 Rise Set
Actual Time 7:32 AM EDT 7:27 PM EDT
Civil Twilight 7:09 AM EDT 7:50 PM EDT
Nautical Twilight 6:42 AM EDT 8:17 PM EDT
Astronomical Twilight 6:16 AM EDT 8:44 PM EDT
Moon 7:47 AM EDT (3/12) 8:29 PM EDT (3/12)
Length of Visible Light 12h 41m
Length of Day
11h 55m
New Moon, 1% of the Moon is Illuminated
Mar 12
New Moon
Mar 19
First Quarter
Mar 27
Full
Apr 3
Last Quarter
Apr 10
New

Hourly Weather History & Observations

Time (EDT) Temp. Dew Point Humidity Pressure Visibility Wind Dir Wind Speed Gust Speed Precip Events Conditions
12:53 AM 72.0 °F 62.1 °F 71% 29.99 in 10.0 mi SE 13.8 mph - N/A   Partly Cloudy
1:53 AM 72.0 °F 64.0 °F 76% 29.99 in 10.0 mi SSE 16.1 mph 24.2 mph N/A   Mostly Cloudy
2:53 AM 72.0 °F 62.1 °F 71% 29.98 in 10.0 mi SSE 13.8 mph 23.0 mph N/A   Scattered Clouds
3:53 AM 72.0 °F 64.0 °F 76% 29.96 in 10.0 mi SSE 15.0 mph 21.9 mph N/A   Partly Cloudy
4:53 AM 72.0 °F 64.0 °F 76% 29.94 in 10.0 mi South 16.1 mph 23.0 mph N/A   Scattered Clouds
5:53 AM 72.0 °F 63.0 °F 73% 29.94 in 10.0 mi SSE 13.8 mph - N/A   Scattered Clouds
6:53 AM 72.0 °F 64.0 °F 76% 29.96 in 10.0 mi South 12.7 mph - N/A   Scattered Clouds
7:53 AM 72.0 °F 64.9 °F 78% 29.97 in 10.0 mi SSE 13.8 mph 18.4 mph N/A   Scattered Clouds
8:53 AM 73.9 °F 64.9 °F 73% 29.98 in 10.0 mi South 15.0 mph 23.0 mph N/A   Scattered Clouds
9:53 AM 75.9 °F 66.0 °F 71% 30.00 in 10.0 mi South 11.5 mph 20.7 mph N/A   Scattered Clouds
10:53 AM 77.0 °F 66.9 °F 71% 30.01 in 10.0 mi South 13.8 mph - N/A   Scattered Clouds
11:53 AM 77.0 °F 68.0 °F 74% 30.02 in 10.0 mi South 17.3 mph 24.2 mph N/A   Scattered Clouds
12:23 PM 77.0 °F 68.0 °F 74% 30.01 in 10.0 mi South 17.3 mph 24.2 mph N/A   Mostly Cloudy
12:45 PM 78.8 °F 68.0 °F 69% 30.00 in 10.0 mi SSE 19.6 mph 26.5 mph N/A   Overcast
12:53 PM 79.0 °F 68.0 °F 69% 30.01 in 10.0 mi SSE 18.4 mph 26.5 mph N/A   Mostly Cloudy
1:53 PM 78.1 °F 69.1 °F 74% 29.98 in 10.0 mi SSE 15.0 mph - N/A   Mostly Cloudy
2:53 PM 75.9 °F 68.0 °F 76% 29.96 in 10.0 mi South 10.4 mph 20.7 mph N/A   Overcast
3:53 PM 77.0 °F 66.0 °F 69% 29.95 in 10.0 mi South 10.4 mph 18.4 mph 0.00 in   Overcast
4:53 PM 73.9 °F 69.1 °F 85% 29.95 in 10.0 mi South 9.2 mph - 0.01 in   Overcast
5:53 PM 75.9 °F 69.1 °F 79% 29.93 in 10.0 mi SSE 8.1 mph - N/A   Overcast
6:53 PM 77.0 °F 64.0 °F 64% 29.95 in 10.0 mi SSW 12.7 mph 20.7 mph N/A   Overcast
7:53 PM 75.9 °F 64.9 °F 69% 29.94 in 10.0 mi SW 9.2 mph - N/A   Mostly Cloudy
8:53 PM 75.0 °F 64.9 °F 71% 29.98 in 10.0 mi WSW 8.1 mph - N/A   Partly Cloudy
9:53 PM 73.0 °F 64.9 °F 76% 30.00 in 10.0 mi West 6.9 mph - N/A   Scattered Clouds
10:53 PM 72.0 °F 66.0 °F 81% 30.01 in 10.0 mi West 8.1 mph - N/A   Clear
11:53 PM 70.0 °F 66.0 °F 87% 30.02 in 10.0 mi West 8.1 mph - N/A   Mostly Cloudy